Tracking 25995 objects as of 20-Aug-2022
HD Live streaming from Space Station
objects crossing your sky now

RISESAT

Track RISESAT now!
10-day predictions


NORAD ID: 43934
Int'l Code: 2019-003C
Perigee: 470.8 km
Apogee: 486.4 km
Inclination: 97.1 °
Period: 94.0 minutes
Semi major axis: 6849 km
RCS: Unknown
Launch date: January 18, 2019
Source: Japan (JPN)
Launch site: KAGOSHIMA SPACE CENTER UNIVERSITY OF TOKYO (KSCUT)
aabbcc
Your satellite tracking list
Your tracking list is empty




NASA's NSSDC Master Catalog

Two Line Element Set (TLE):
1 43934U 19003C   22231.91844705  .00025558  00000-0  84027-3 0  9993
2 43934  97.1306 258.3434 0011384 315.0243 128.2271 15.31457987199344
Source of the keplerian elements: AFSPC